This is the latest recevied weather packets stored in our database for station/object KD8PH. If no packets are shown the sender has not sent any weather packets the latest 1 day(s).
| Time | Temp. | Humidity | Pressure | Rain* | Wind** | Luminosity | Snow |
|---|---|---|---|---|---|---|---|
| 1778054140 | 21.67° C | 71% | 1009.2 hPa | 0 mm | 1.79 m/s, 248° | - | - |
| 1778053543 | 21.67° C | 72% | 1009.1 hPa | 0 mm | 1.34 m/s, 225° | - | - |
| 1778052959 | 21.67° C | 71% | 1009 hPa | 0 mm | 1.79 m/s, 225° | - | - |
| 1778052343 | 22.22° C | 71% | 1008.8 hPa | 0 mm | 2.24 m/s, 225° | - | - |
| 1778051774 | 22.22° C | 71% | 1008.8 hPa | 0 mm | 3.13 m/s, 225° | - | - |
| 1778051138 | 22.22° C | 71% | 1008.8 hPa | 0 mm | 3.58 m/s, 225° | - | - |
| 1778050540 | 22.22° C | 71% | 1008.7 hPa | 0 mm | 4.47 m/s, 225° | - | - |
| 1778049940 | 22.22° C | 71% | 1008.9 hPa | 0 mm | 3.58 m/s, 225° | - | - |
| 1778049338 | 22.22° C | 70% | 1009 hPa | 0 mm | 2.68 m/s, 225° | - | - |
| 1778048741 | 22.22° C | 70% | 1009.3 hPa | 0 mm | 2.24 m/s, 225° | - | - |
| 1778048152 | 22.22° C | 70% | 1009.2 hPa | 0 mm | 2.68 m/s, 225° | - | - |
| 1778047535 | 22.22° C | 69% | 1009.3 hPa | 0 mm | 4.02 m/s, 225° | - | - |
| 1778046938 | 22.22° C | 69% | 1009.7 hPa | 0 mm | 4.02 m/s, 225° | - | - |
| 1778046352 | 22.22° C | 70% | 1009.8 hPa | 0 mm | 3.58 m/s, 225° | - | - |
| 1778045737 | 22.22° C | 69% | 1009.9 hPa | 0 mm | 2.24 m/s, 225° | - | - |
| 1778045135 | 22.22° C | 68% | 1010 hPa | 0 mm | 1.34 m/s, 248° | - | - |
| 1778044539 | 22.22° C | 68% | 1010 hPa | 0 mm | 3.13 m/s, 225° | - | - |
| 1778043939 | 22.22° C | 67% | 1010 hPa | 0 mm | 1.79 m/s, 248° | - | - |
| 1778043342 | 22.22° C | 67% | 1010 hPa | 0 mm | 0.89 m/s, 248° | - | - |
| 1778042735 | 22.22° C | 66% | 1009.9 hPa | 0 mm | 2.24 m/s, 225° | - | - |
| 1778042158 | 22.22° C | 66% | 1009.9 hPa | 0 mm | 2.24 m/s, 225° | - | - |
| 1778041536 | 22.22° C | 65% | 1010.1 hPa | 0 mm | 2.24 m/s, 225° | - | - |
| 1778040937 | 22.22° C | 65% | 1010.2 hPa | 0 mm | 2.24 m/s, 225° | - | - |
| 1778040338 | 22.22° C | 64% | 1010.3 hPa | 0 mm | 1.79 m/s, 225° | - | - |
| 1778039738 | 22.22° C | 63% | 1010.2 hPa | 0 mm | 1.34 m/s, 248° | - | - |
* Rain latest hour (hover to see other rain measurements)
** Current wind speed in m/s (hover to see current wind gust speed)